Zurück zum Katalog

BB3

AktivKommunikationPO
NORAD 57760·PAYLOAD·🇺🇸 United States

Gestartet Sep 2, 2023 von Vandenberg Space Force Base

Loading…

Nächste Überflüge (nächste 24 Stunden)

TLE

AktuellSource: Space-Track

Epoche: Sep 14, 2026, 10:41 UTC

1 57760U 23133D   26257.44519058  .00000583  00000-0  63768-4 0  9995
2 57760  80.9938 250.5524 0009128  48.9945 311.2054 14.86534326155230

Verfolge BB3 in Echtzeit mit AllMySat

Download on the App Store